Theta_e
343 341 341 339 339 339 336 335 336 335 336 334 332 332 334 337 337 337 336 342 341 341 341 341 343 347 348 348 347 346 345 343 340 343 342 341 340 341 340 342 343 343 343
345 339 340 340 339 341 338 341 338 333 332 333 335 334 337 337 336 340 336 342 343 341 341 341 342 347 348 348 347 346 345 344 344 343 342 342 341 341 341 342 342 342 341
344 343 338 338 338 346 341 341 337 339 334 333 335 338 336 336 335 338 336 335 340 341 341 341 342 347 348 348 348 346 345 345 343 341 340 340 340 340 341 342 341 339 337
344 342 339 338 339 342 342 338 335 334 332 337 338 337 335 337 337 337 337 335 334 340 341 341 344 347 348 348 348 346 345 343 342 340 338 337 338 339 340 341 339 336 334
342 342 341 340 343 341 338 337 334 337 332 334 334 335 335 336 335 335 335 335 339 340 338 343 345 346 348 347 347 346 344 343 341 339 338 338 338 339 339 339 336 334 333
341 341 340 341 342 339 338 336 335 334 333 332 332 332 334 335 332 334 333 334 336 339 339 344 347 343 346 347 346 346 345 343 340 338 338 337 338 338 338 337 336 334 332
341 342 340 340 340 338 336 336 336 333 334 335 332 332 333 336 334 335 334 334 337 339 340 346 346 351 345 345 344 345 345 343 340 338 338 337 338 339 338 336 334 333 332
342 340 340 339 339 338 336 333 335 332 333 335 328 330 322 324 327 332 337 339 338 338 340 345 347 347 348 344 341 343 344 343 341 338 338 336 337 338 335 334 332 331 330
339 340 338 338 338 338 334 335 336 331 330 332 334 330 323 317 320 331 335 336 337 338 343 345 346 346 344 340 338 340 342 341 341 342 338 337 337 336 333 332 331 330 329
337 337 338 337 336 335 338 334 337 334 333 329 335 331 332 329 318 319 333 337 342 340 342 347 347 344 341 339 338 340 338 339 340 339 337 337 335 334 332 331 330 329 328
339 336 337 336 336 341 335 335 334 334 333 334 329 332 331 328 332 321 320 326 337 340 342 344 342 342 344 344 342 338 336 335 336 335 335 334 333 328 328 331 330 329 329
340 337 335 337 338 337 336 334 334 335 336 337 335 336 332 328 326 329 329 329 330 331 338 340 337 336 336 338 339 334 332 331 329 330 330 331 330 329 330 331 330 330 329
337 339 337 337 338 337 335 336 336 336 335 337 337 334 336 338 337 337 335 330 325 328 332 337 336 334 334 335 335 334 331 326 325 325 326 327 328 331 332 332 330 330 330
339 337 336 336 336 335 334 337 341 339 338 339 335 336 337 332 336 334 336 332 321 323 329 329 336 337 334 332 334 331 328 325 324 323 323 325 327 329 330 330 331 331 330
335 335 335 336 335 335 336 338 337 335 336 336 336 335 337 337 335 339 341 340 325 319 322 327 326 333 332 330 329 328 327 325 325 322 321 322 324 325 326 326 327 326 326
334 334 335 336 335 335 335 338 338 337 335 331 335 334 334 338 337 333 334 338 336 330 320 326 329 328 327 326 328 327 327 326 322 321 321 320 320 321 322 324 324 324 325
334 333 334 334 333 334 335 337 336 334 332 334 332 333 332 331 337 331 334 334 333 333 324 326 328 325 324 324 325 326 327 327 323 320 321 319 319 319 320 321 322 322 322
334 332 334 331 331 332 335 334 332 333 332 331 333 332 330 333 333 335 336 333 330 333 324 320 323 323 323 323 323 323 325 327 324 320 319 318 317 317 319 319 316 314 313
333 332 333 331 330 331 332 332 332 331 332 329 330 332 329 332 331 327 327 327 328 326 324 321 319 322 322 324 322 323 322 323 324 320 316 315 315 315 313 311 309 307 306
333 331 333 331 332 332 331 331 332 331 330 331 333 334 330 331 326 328 327 325 324 323 323 320 319 319 321 322 321 319 318 321 319 323 316 316 314 310 309 308 307 305 303
332 331 331 332 331 331 329 330 331 330 331 332 334 333 333 327 321 324 329 326 324 321 320 319 318 319 318 318 317 319 318 319 319 321 318 316 315 313 310 308 306 303 302
333 331 329 329 330 330 310 314 324 331 332 332 332 333 331 325 318 311 316 318 324 323 320 319 318 317 318 319 320 319 318 318 316 324 322 320 320 314 314 306 302 301 300
333 332 331 329 331 328 308 309 313 332 331 333 332 331 330 329 327 325 312 311 311 311 316 322 320 320 319 320 320 317 317 322 322 327 325 318 319 313 307 301 300 299 298
330 327 327 329 331 325 306 306 312 332 333 333 332 331 328 328 327 328 326 323 323 324 324 325 324 324 324 322 319 318 322 329 325 323 327 315 317 309 308 302 298 298 297
334 332 329 324 327 325 304 302 313 332 332 331 331 330 326 324 305 308 323 319 319 319 310 309 309 307 305 309 319 325 325 321 317 319 326 319 316 311 308 303 299 297 296
334 333 329 326 314 328 301 300 312 329 330 327 325 322 306 317 303 308 326 321 319 320 322 323 322 313 317 317 310 331 328 322 320 319 326 320 316 313 308 309 302 298 297
Wind_Speed
6 6 6 3 5 8 6 7 5 5 5 7 11 11 8 11 11 2 4 11 9 10 9 11 11 11 15 20 20 20 20 20 18 16 16 13 13 10 10 12 14 14 16
6 7 5 4 5 6 6 4 5 5 7 9 5 9 6 6 9 7 7 6 12 13 12 12 11 11 16 20 22 22 21 19 18 17 17 15 12 12 14 14 17 16 15
8 8 8 6 7 6 8 7 8 7 9 8 6 4 5 8 6 5 6 5 13 16 16 13 13 12 15 19 23 23 20 19 20 18 16 15 13 13 16 16 16 16 15
10 8 6 7 7 6 6 5 6 9 7 5 5 3 6 5 3 7 8 8 8 9 14 16 15 13 16 20 24 24 22 21 20 19 18 15 13 13 16 16 16 17 16
10 8 6 7 7 6 7 5 6 8 6 5 6 5 6 6 9 10 11 10 10 4 7 16 13 13 16 23 23 23 24 22 22 21 20 18 16 18 18 17 17 17 16
7 8 8 6 7 7 6 5 8 7 6 5 5 5 7 7 6 9 8 9 8 9 8 4 7 10 15 21 23 24 25 25 24 23 20 19 18 20 19 18 17 16 16
9 4 6 7 7 7 8 8 8 10 4 5 5 5 6 7 6 4 5 6 6 11 9 5 6 4 9 20 21 24 27 26 25 24 21 18 20 20 20 18 18 17 15
5 5 7 7 8 6 8 8 10 5 6 6 6 5 5 5 5 4 6 6 7 7 5 7 7 9 6 7 12 24 27 28 27 25 23 21 21 20 21 18 18 16 15
5 7 8 6 7 7 7 8 7 8 6 6 10 5 4 5 10 7 8 7 6 5 4 5 7 7 10 11 11 14 21 24 26 25 25 23 21 21 21 18 17 15 15
4 5 6 8 7 7 4 6 6 8 7 8 7 11 8 2 8 7 4 5 6 5 4 4 6 12 10 9 14 19 19 24 26 28 27 24 23 22 20 17 15 14 15
6 6 8 8 8 4 5 7 8 7 7 5 7 7 4 6 3 5 8 6 4 4 3 5 7 8 10 10 11 13 22 25 25 25 24 23 22 21 19 18 16 13 13
5 8 7 6 6 6 6 7 6 8 5 5 5 4 5 2 4 2 4 8 8 3 6 7 6 5 6 3 10 19 19 21 22 23 20 19 20 20 19 18 16 15 13
4 6 4 4 4 6 6 6 6 6 6 6 6 4 3 3 4 1 5 7 6 1 3 4 8 6 6 9 9 20 22 21 22 22 19 18 19 17 16 16 15 13 11
3 6 5 4 5 7 8 7 4 4 6 4 5 4 4 5 1 3 5 7 8 2 2 6 4 6 8 8 16 26 17 22 22 19 17 16 12 13 12 12 11 9 7
6 5 5 5 7 6 6 6 4 3 1 3 6 4 2 3 1 2 4 5 10 5 4 4 3 7 9 11 17 12 15 23 20 17 13 12 13 12 12 10 10 10 8
4 6 5 5 6 7 6 5 4 4 5 3 2 2 4 2 3 4 6 4 2 5 5 4 3 9 12 12 17 13 13 16 15 14 13 12 12 10 9 9 9 9 7
4 7 7 7 6 5 6 4 4 5 4 3 5 6 1 5 3 5 3 3 2 2 8 4 5 11 17 17 13 12 11 9 8 12 12 11 10 10 10 9 7 7 8
8 7 5 5 5 7 5 4 5 6 5 4 4 3 4 4 5 4 3 6 6 6 9 13 11 11 15 16 16 14 9 7 8 10 11 10 10 10 9 8 9 10 10
6 6 7 5 4 6 6 4 5 5 7 4 2 4 3 3 4 5 7 7 8 7 9 12 11 12 14 11 12 11 9 10 7 12 12 12 12 11 11 11 12 12 12
4 6 7 4 6 5 5 4 7 7 6 6 6 6 4 4 6 8 8 9 9 7 10 12 13 12 10 10 10 10 9 8 6 5 8 11 11 15 14 15 15 16 14
2 5 5 7 5 5 4 5 5 6 6 6 5 6 8 10 9 4 8 10 10 10 9 11 11 11 10 9 10 6 10 8 7 7 8 8 8 8 9 12 15 16 13
7 7 6 6 5 5 9 6 3 4 3 5 6 8 10 11 10 10 13 10 12 13 13 9 11 12 9 9 9 8 7 8 8 7 9 9 8 8 8 8 14 12 10
5 8 7 7 6 9 6 4 4 5 4 5 6 8 8 7 10 12 15 15 14 13 10 11 15 12 13 12 11 8 6 5 6 7 7 8 7 8 8 8 8 10 10
8 6 6 3 10 8 3 2 6 8 5 8 8 7 8 8 9 10 13 11 11 11 10 9 10 12 12 11 9 11 9 5 7 6 6 7 8 8 8 7 6 8 9
7 7 7 5 4 9 2 5 7 6 7 8 8 12 9 9 7 12 12 13 12 11 12 16 14 13 12 12 10 8 7 9 8 8 7 7 6 7 7 7 6 8 9
7 7 9 8 5 9 3 3 6 6 7 7 8 9 12 9 7 9 14 11 12 11 13 12 8 7 10 9 10 7 7 8 7 7 7 7 8 7 5 7 8 7 6
Wind_Direction
237 253 257 289 269 286 258 262 270 289 245 223 249 245 211 248 255 275 104 177 186 203 203 231 241 228 208 193 187 176 179 171 180 178 171 181 181 182 185 163 138 128 119
237 253 232 234 275 280 269 278 239 276 256 237 237 258 184 239 262 278 187 174 193 200 201 225 237 229 214 196 186 183 173 173 182 174 160 156 156 163 163 157 140 127 128
235 254 268 254 234 238 243 252 258 251 267 264 220 239 253 225 218 225 229 234 196 198 197 210 229 225 210 198 183 174 168 166 161 148 145 144 139 165 165 145 137 132 128
239 255 244 259 282 265 249 244 226 246 244 255 276 304 236 235 223 237 241 241 236 200 194 199 209 213 199 194 183 173 165 160 154 152 149 147 151 174 162 141 137 133 130
233 230 250 249 257 248 236 227 236 238 243 240 244 239 224 221 205 211 217 222 250 281 206 180 195 201 194 194 188 177 171 160 155 153 149 151 163 163 146 139 138 135 136
245 246 243 246 250 234 237 217 236 240 242 237 235 215 231 230 198 226 205 219 208 238 241 176 194 200 196 189 190 176 171 162 156 155 153 163 170 154 137 139 136 141 133
255 219 247 252 243 230 225 219 229 233 225 218 208 209 233 239 227 163 215 236 190 220 222 212 209 217 182 181 183 176 167 161 162 160 154 170 161 144 137 138 140 135 138
226 231 248 249 239 228 223 223 224 217 234 206 197 179 189 210 205 205 217 224 222 253 192 202 196 193 156 152 188 167 165 163 163 162 159 157 149 140 137 142 141 139 150
231 224 241 240 240 233 217 217 222 219 224 201 212 211 204 209 174 185 206 215 180 202 188 188 173 155 137 134 148 160 169 164 162 158 153 149 140 142 141 140 134 154 153
250 239 237 222 229 227 193 218 222 219 209 209 199 219 233 262 191 163 212 219 197 159 185 164 158 145 159 149 166 172 167 162 161 154 149 141 143 144 134 134 155 164 155
243 232 224 215 222 229 220 224 218 199 209 208 208 239 201 259 261 182 162 169 161 127 107 123 140 146 149 155 164 163 162 161 153 142 138 141 145 133 143 164 160 159 154
229 224 220 201 201 213 217 212 204 200 200 208 199 207 234 242 250 128 170 162 137 92 117 122 109 100 88 136 153 140 139 138 133 128 136 132 132 154 170 157 157 165 151
208 206 196 182 194 190 192 186 189 186 197 205 199 210 206 232 206 197 178 150 130 91 115 117 121 105 103 94 140 132 133 125 120 122 129 138 162 173 160 159 160 151 147
171 171 192 152 174 185 176 162 160 201 207 212 208 202 201 233 194 185 179 158 130 140 140 125 132 117 116 129 142 138 135 125 122 125 135 156 157 149 152 149 146 137 119
173 174 156 173 189 156 146 161 178 176 130 151 153 177 253 230 255 149 168 186 157 154 139 138 113 133 116 117 111 115 121 123 127 133 146 141 134 139 143 147 122 111 114
180 135 147 179 201 160 152 160 184 136 134 124 145 212 242 138 111 102 128 150 289 167 135 133 99 132 129 123 120 121 123 118 121 126 126 131 134 130 125 109 111 127 141
181 156 153 169 152 157 156 149 146 140 130 199 181 221 134 133 111 98 82 99 172 222 133 108 111 126 131 127 123 122 118 109 113 113 122 122 125 120 107 115 131 142 94
192 166 170 148 140 124 133 157 140 142 159 157 65 63 73 75 99 116 100 101 86 109 132 132 129 136 125 117 120 116 112 99 101 95 106 115 112 112 115 123 108 97 99
184 167 139 141 125 133 129 133 138 122 95 113 148 94 98 134 123 78 85 90 86 93 116 127 120 119 114 114 115 112 102 99 93 100 91 85 89 99 104 102 100 101 101
224 168 116 130 118 106 123 117 98 108 143 173 166 144 168 135 81 116 114 108 107 102 108 115 109 112 112 107 108 118 117 112 119 113 71 88 94 90 94 95 102 103 94
130 97 147 82 85 115 102 103 114 152 162 152 149 113 71 78 82 81 121 126 124 115 118 120 118 113 114 118 122 116 120 136 138 144 130 133 129 113 108 88 96 98 95
136 120 120 128 151 114 80 36 114 154 148 118 114 113 102 101 78 75 99 113 138 133 128 123 128 126 115 117 121 123 131 145 148 159 157 138 130 139 113 83 94 100 108
138 127 130 129 128 103 79 57 4 116 122 116 99 99 96 101 115 103 91 90 81 74 98 134 130 131 126 133 125 126 140 150 137 143 139 131 132 114 98 106 107 112 109
115 114 104 92 120 109 114 45 333 132 123 112 114 112 101 103 107 118 107 103 106 109 110 116 118 118 124 143 135 150 173 139 109 130 150 149 139 135 123 116 122 123 117
143 139 139 123 92 128 216 355 342 119 120 101 99 101 101 101 106 108 109 107 101 97 81 90 95 107 121 137 166 171 159 144 152 175 194 142 153 140 155 157 151 160 154
130 132 127 155 132 134 159 309 314 128 113 111 90 85 62 95 119 115 121 123 118 124 126 121 118 114 135 163 190 212 188 164 167 157 192 181 157 157 179 164 163 175 182